Погода в Валуйки

Погода в Валуйки : погода сейчас, прогноз погоды и архив. Всё, что Вы хотите узнать о погоде в Валуйки!

Хотите узнать прогноз погоды в Валуйки? Тогда Вам сюда: Погода в Валуйки

Поиск расширенной информации на нашем сайте:

Другие новости

Новости СМИ2

Главная страница сайта

Новости сайта

02.10.2013

Напоминаем, что на нашем новом сайте вы можете получить высокодетализированные прогнозы погоды по пунктам России, СНГ и мира (включающие важные для авиации метеовеличины, такие как направление и скорость ветра, видимость, явления погоды, количество и форма облачности, нижняя и верхняя граница облачности), а также ознакомиться с разнообразными материалами по авиационной метеорологии и подборкой полезных ссылок на эту тему.

Сайт Метеоцентр.Азия посвящён разработке технологий оптимизации авиаметеорологического обслуживания, включая проектирование и перспективное создание нескольких автоматизированных авиаметеорологических систем:
- система выпуска высокодетальных прогностических карт явлений погоды для нижнего воздушного пространства по России и ближнему зарубежью;
- система верификации прогнозов TAF (выпускаемых синоптиками официальных АМСГ РФ и ближнего зарубежья) и AUTOTAF (выпускаемых сайтом Метеоцентр.Азия) - выявление ошибок, онлайн-сопоставление с фактической погодой METAR, автоматическое внесение коррективов в прогнозы при резком отклонении фактической погоды от прогноза, подсчёт оправдываемости прогнозов по элементам и в целом;
- система обработки, анализа и отображения авиаметеорологической информации для применения провайдерами метеорологической информации.


Погода в Валуйки - сегодня

Время (UTC), дата Ветер
(°,м/с) 
Видим.   Явления Облачность Т
(°С)
Тd
(°С)
f(%) Тe
(°С)
Pmin
(гПа)
dP
(гПа)
Po
(мм)
O2
(г/м3)
Тmin Tmax R s Состояние
почвы
21 17.01.17 тихо ()   10 км    10/0 средняя 
[As op]
-7.8 -8.8 93 -8  1035  1.2  765  318           
00 18.01.17 тихо ()   10 км    10/0 средняя 
[As op]
-6.7 -7.5 94 -7  1035.3  0.3  765  317           
03 18.01.17 020 (С) 10 км    10/0 средняя 
[As op]
-5.5 -6.6 92 -8  1035.3  0.1  765  316  -11.2         
06 18.01.17 300 (СЗ) 20000 м    10/0 средняя 
[As op]
-5.3 -7.1 87 -5  1036.7  1.4  767  316  -11.2      35  равномерный
сухой снег
100% 
09 18.01.17 350 (С) 35000 м    9/0 средняя 
[Ac trans]
-2.6 -7.4 70 -2  1037.1  0.5  767  313           
12 18.01.17 350 (С) 50000 м    3/0 средняя, верхняя 
[Ac trans|Ci fib]
-2.1 -8 64 -3  1036.6  -0.4  767  312           
15 18.01.17 350 (С) 10 км    4/0 верхняя 
[Ci fib]
-6.3 -9 81 -6  1037.4  0.5  767  317           
18 18.01.17 150 (ЮВ) 10 км    ясно 
-11.1 -12.4 90 -11  1038.2  0.5  767  323    -1.7       
21 18.01.17 310 (СЗ) 10 км    10/0 средняя 
[As op]
-11.8 -13.1 90 -12  1038.6  0.4  768  325           
00 19.01.17 320 (СЗ) 10 км    10/0 средняя 
[As op]
-12.4 -13.7 90 -12  1038.6  -0.1  768  325           
03 19.01.17 320 (СЗ) 10 км    10/0 средняя 
[As op]
-10.8 -12.1 90 -11  1038.4  -0.1  767  323  -13         
06 19.01.17 тихо ()   20000 м    9/0 средняя 
[Ac trans]
-11.6 -12.9 90 -12  1038.3  -0.1  767  324  -13      34  равномерный
сухой снег
100% 
09 19.01.17 140 (ЮВ) 35000 м    8/0 средняя 
[Ac trans]
-8.9 -11.8 79 -9  1038.2  767  321           
12 19.01.17 250 (З) 35000 м    3/0 средняя 
[Ac trans]
-4.4 -10.4 63 -6  1036.2  -1.6  766  315           
15 19.01.17 тихо ()   10 км    ясно 
-8.3 -12 75 -8  1035.9  -0.7  766  319           
18 19.01.17 150 (ЮВ) 10 км    ясно 
-13 -14.3 90 -13  1034.7  -1.3  765  325    -4       
21 19.01.17 280 (З) 10 км    ясно 
-12.4 -13.7 90 -12  1033.6  -1.1  764  324           
00 20.01.17 240 (ЮЗ) 10 км    ясно 
-13 -14.3 90 -15  1031.6  -2  762  324           
03 20.01.17 220 (ЮЗ) 10 км    10/0 средняя 
[As op]
-11.6 -12.9 90 -11  1028.6  -2.8  760  321  -13.5         
06 20.01.17 240 (ЮЗ) 15000 м    10/0 средняя 
[As op]
-9 -11 85 -11  1026.6  -1.9  759  317  -13.5      34  равномерный
сухой снег
100% 
09 20.01.17 260 (З) 15000 м    10/0 средняя 
[As op]
-6.9 -9.4 82 -10  1025.3  -1.2  758  314           
12 20.01.17 270 (З) 20000 м    10/0 средняя 
[As op]
-5.3 -8.2 80 -8  1022.8  -2.3  756  312           
15 20.01.17 280 (З) 10 км    10/10 360 м 
[St]
-5.8 -7.3 89 -7  1022.7  -0.1  756  312           
18 20.01.17 270 (З) 10 км    10/10 420 м 
[St]
-4.9 -6.6 88 -4  1022.8  0.1  756  311    -4.9       
21 20.01.17 280 (З) 10 км    10/10 540 м 
[St]
-4.3 -5.9 89 -4  1022.3  -0.4  756  310           
Время (UTC), дата Ветер
(°,м/с) 
Видим.   Явления Облачность Т
(°С)
Тd
(°С)
f(%) Тe
(°С)
Pmin
(гПа)
dP
(гПа)
Po
(мм)
O2
(г/м3)
Тmin Tmax R s Состояние
почвы

Для получения пояснительной информации подведите курсор к названию столбца.

ПОГОДА в Валуйки - архив

Всё, что Вы хотите узнать о погоде в Валуйки - удобно и подробно!

Выберите нужную дату (начиная с 1 января 2015* года) и нажмите кнопку "Найти".
Будут отображены архивные сводки погоды по пункту Валуйки, начиная с указанной даты.


Отображать данные в формате CSV (для использования в таблицах Excel)


Внимание! Наш архив погоды предназначен исключительно для личного некоммерческого использования в познавательных целях. Если Вам необходимы официальные справки о состоянии погоды (для производственных, юридических, коммерческих и т.п. целей), обращайтесь в органы Росгидромета.

*Примечание: данная дата относится к архиву по метеостанциям СССР (Россия, СНГ, Балтия).
Архив по метеостанциям Зарубежной Европы и Азии (кроме Китая) хранится 10 дней, по другим регионам земного шара (Китай, Африка, Америка, Австралия, Океания) - 1 день.

Валуйки - район местоположения метеостанции


Название, широта, долгота, высота метеостанции:
Валуйки 50.2°ш. 38.1°д. 112 м над ур. моря [Российская Федерация]

Дополнительная информация

В oтличие oт бoльшинства пoгoдных сайтoв мы публикуем пoдрoбную метеoинфoрмацию в детальнoм прoфессиoнальнoм фoрмате.

Характеристики температуры и влажнoсти вoздуха измеряются на высoте 2 м в тени вдали oт зданий и деревьев.
Скoрoсть ветра измеряется на высoте 10 м (на урoвне рoста челoвека скoрoсть ветра ниже в 1.5-2 раза). Если метеoстанция нахoдится в гoрoде или в лесу, тo скoрoсть ветра занижена на 2-4 м/с пo сравнению с oткрытым местoм. Скoрoсть ветра над акватoриями крупных рек и oзёр, а также на вершинах хoлмoв на 2-5 м/с выше, чем в oбычных услoвиях.
Атмoсфернoе давление в разных тoчках местнoсти мoжет значительнo oтличаться oт давления на метеoстанции, в зависимoсти oт услoвий рельефа (при пoдъёме на 10 м давление пoнижается примернo на 1 мм рт.ст.).